User: anonymous   Login
Location: Deuil
(48.9767°N, 2.3272°E)
Time: 11:15:16
(UTC+00:00)
Language:

Cosmos 2228 - Orbit

View from above orbital plane
View from above orbital plane
View from above satellite
View from above satellite

Ground track
Ground track

The orbit data is extracted from the following two-line orbital elements,

1 22286U 92094A   22271.67499828  .00001284  00000-0  13370-3 0  9993
2 22286  82.5232 353.2872 0020568 188.3550 171.7329 14.88921532588380
Epoch (UTC): 28 September 2022 16:11:59
Eccentricity: 0.0020568
inclination: 82.5232°
perigee height: 587 km
apogee height: 615 km
right ascension of ascending node: 353.2872°
argument of perigee: 188.3550°
revolutions per day: 14.88921532
mean anomaly at epoch: 171.7329°
orbit number at epoch: 58838

The dashed part of the orbit path shows where the satellite is in the earth's shadow,  

DLR